Weather in Sanchursk

Russia / Kirov Oblast     56°56′28″N   47°14′56″E
temp.,
°C
wind,
m/s
gust,
m/s
humid.,
%
clouds,
%
prec.,
mm/h
press.,
hPa
HPBL,
m
18 august, thu
thu1800:00+16e34695 0.0 102356
03:00+14e33735 0.0 102426
06:00+15e35745 0.0 1025119
09:00+21e35544 0.0 1025510
12:00+25e45460 0.0 10251398
15:00+25ene56483 0.0 10241799
18:00+22ene59610 0.0 1025299
21:00+17e512520 0.0 1027299
19 august, fri
fri1900:00+12e49600 0.0 1028165
03:00+11e49663 0.0 1030158
06:00+12ese410660 0.0 1031237
09:00+18se58451 0.0 1033735
12:00+21ese57380 0.0 10321322
15:00+22ese56350 0.0 10321514
18:00+19ese33540 0.0 103248
21:00+14ese33590 0.0 103326
20 august, sat
sat2000:00+12ese33640 0.0 103334
03:00+11se22693 0.0 103414
06:00+12ese22700 0.0 103447
09:00+19ese23500 0.0 1034456
12:00+23ese23390 0.0 10331131
15:00+24ese23370 0.0 10311335
18:00+21e22532 0.0 103017
21:00+16ene22600 0.0 103111
21 august, sun
sun2100:00+14e22680 0.0 103111
03:00+13e22731 0.0 103110
06:00+15e22720 0.0 103140
09:00+21e23535 0.0 1031415
12:00+25e23435 0.0 10301193
15:00+27ese23400 0.0 10281561
18:00+23e22572 0.0 102815
21:00+19e33675 0.0 102924
22 august, mon
mon2200:00+17e33735 0.0 102938
03:00+16ese33795 0.0 102929
06:00+18e23775 0.0 103062
09:00+24ese345998 0.0 1030383
12:00+26ese445341 0.0 1030680
15:00+28e444533 0.0 10291732
18:00+24ese366526 0.0 1029137
21:00+21e347078 0.0 102975